Home   Weather   Knittelfeld   Past weeks

Flag for Austria Past Weather in Knittelfeld, Styria, Austria — Yesterday and Last 2 Weeks

Now
9 °F

Clear.


Feels Like: 9 °F
Forecast: 7 / 34 °F
Wind: 2 mph from West

Location: Zeltweg

Current Time: Jan 22, 2017 at 12:57:02 am

Latest Report: Jan 21, 2017 at 9:50 pm


Visibility: 9 mi

Pressure: 30.45 "Hg (27.99 "Hg at 641m altitude)

Humidity: 92%

Dew Point: 7 °F

Location of KnittelfeldLocation

Past Weather in Knittelfeld — Graph

°F

Knittelfeld Temperature Yesterday

Maximum temperature yesterday: 25 °F (at 1:20 pm)
Minimum temperature yesterday: 3 °F (at 4:50 am)
Average temperature yesterday: 12 °F

High & Low Weather Summary for the Past Weeks

 TemperatureHumidityPressure
High41 °F (Jan 13, 4:50 am)100% (Jan 13, 10:20 am)30.54 "Hg (Jan 13, 10:20 am)
Low3 °F (Jan 11, 8:20 am)30% (Jan 7, 11:50 am)29.42 "Hg (Jan 13, 4:50 am)
Average21 °F74%30.11 "Hg
* Reported Jan 6 9:50 pm — Jan 21 9:50 pm, Knittelfeld, Weather by CustomWeather, © 2017

Note: Actual official high and low records may vary slightly from our data, if they occured in-between our weather recording intervals... More about our weather records

Advertising

Knittelfeld Weather History for the Previous 24 Hours

Scroll right to see more
 ConditionsComfort  
Time TempWeatherWind HumidityBarometerVisibility
9:50 pm
Sat, Jan 21
9 °FClear.2 mph92%30.45 "Hg9 mi
8:50 pm12 °FClear.1 mph85%30.42 "Hg9 mi
7:50 pm12 °FClear.2 mph79%30.42 "Hg9 mi
6:50 pm12 °FClear.2 mph79%30.42 "Hg9 mi
5:50 pm14 °FClear.1 mph79%30.39 "Hg9 mi
1:20 pm25 °FSunny.1 mph63%30.42 "Hg12 mi
12:50 pm21 °FSunny.2 mph74%30.42 "Hg12 mi
12:20 pm21 °FSunny.1 mph74%30.45 "Hg12 mi
11:50 am19 °FSunny.2 mph73%30.45 "Hg12 mi
11:20 am16 °FSunny.1 mph86%30.48 "Hg12 mi
10:50 am14 °FSunny.1 mph79%30.48 "Hg9 mi
10:20 am12 °FSunny.1 mph79%30.48 "Hg9 mi
9:50 am14 °FSunny.1 mph79%30.48 "Hg7 mi
9:20 am9 °FSunny.2 mph85%30.48 "Hg6 mi
8:50 am7 °FSunny.3 mph85%30.48 "Hg6 mi
8:20 am7 °FPassing clouds.1 mph85%30.48 "Hg4 mi
7:50 am5 °FLight fog.1 mph85%30.45 "Hg4 mi
7:20 am3 °FLight fog.1 mph85%N/A4 mi
6:50 am3 °FPassing clouds.1 mph100%30.45 "Hg12 mi
5:50 am5 °FClear.2 mph85%30.45 "Hg12 mi
4:50 am3 °FClear.3 mph85%30.48 "Hg12 mi
Weather by CustomWeather, © 2017

See weather overviewHow to use our weather pages